Location: City of Moscow
(46.7306°N, 116.9989°W)
Time: 14:46:17
(UTC+00:00)

CUBEBUG 2 - Pass Details

Date: 24 April 2026
Orbit: 546 x 628 km, 97.9° (Epoch: 15 May)

Event Time Altitude Azimuth Distance (km) Brightness Sun altitude
Rises 11:41:09 0° 356° (N) 2,840 ? -10.6°
Reaches altitude 10° 11:44:13 10° 332° (NNW) 1,914 ? -10.1°
Maximum altitude 11:46:24 14° 300° (WNW) 1,644 ? -9.8°
Drops below altitude 10° 11:48:32 10° 268° (W) 1,880 ? -9.5°
Enters shadow 11:48:39 10° 267° (W) 1,903 ? -9.5°
